www.pogodaiklimat.ru

АРХИВ ПОГОДЫ в Мидленде

Время (UTC), дата Ветер
(напр.,м/с)
 
Видим.   Явления Облачность Т
(С)
Тd
(С)
f
(%)
Тe
(С)
Тes
(С)
Комфортность

P
(гПа)

Po
(гПа)
Тmin
(С)
Tmax
(С)
R
(мм)
SD
(см)
00:53 27.09 С  13 км    10/10 м  +14.0  +12.0  88  +13  +13    1020.6  921.4  +12.8  +13.9     
01:12 27.09 С  10 км    10/10 м  +14.0  +12.0  88  +13  +13    1020.7  921.4  +12.8  +13.9     
02:39 27.09 СВ  3 км    10/10 м  +13.0  +13.0  100  +11  +11    1021.3  921.7  +12.8  +13.9     
03:41 27.09 СВ  6 км    10/10 м  +13.0  +13.0  100  +11  +11    1021.3  921.7  +12.8  +13.9     
04:33 27.09 СВ  16 км    10/10 м  +13.0  +13.0  100  +12  +12    1021.1  921.7  +12.8  +13.9     
05:36 27.09 В  4 км    10/10 м  +13.0  +12.0  94  +11  +11    1020.7  921.4  +12.8  +13.3     
06:18 27.09 СВ  5 км    10/10 м  +13.0  +12.0  94  +11  +11    1020.3  921.1  +12.8  +13.3     
07:38 27.09 штиль  10 км    10/10 м  +13.0  +13.0  100  +12  +12    1020.0  920.5  +12.8  +13.3     
08:23 27.09 Ю  8 км    10/10 м  +13.0  +13.0  100  +12  +12    1019.8  920.2  +12.8  +13.3     
09:14 27.09 ЮВ  8 км    10/10 м  +13.0  +12.0  94  +12  +12    1019.5  920.2  +12.8  +13.3     
10:39 27.09 штиль  8 км    10/10 м  +13.0  +12.0  94  +12  +12    1019.7  920.2  +12.8  +13.3     
11:53 27.09 Ю  16 км    10/10 м  +14.0  +13.0  94  +13  +13    1019.2  919.9  +13.3  +16.1     
13:41 27.09 З  6 км    10/10 м  +14.0  +13.0  94  +12  +12    1019.2  919.9  +13.3  +16.1     
14:26 27.09 ЮЗ  8 км    10/10 м  +14.0  +13.0  94  +13  +13    1019.7  920.2  +13.3  +16.1     
15:53 27.09 нст  8 км    10/10 м  +15.0  +14.0  94  +15  +15    1019.2  919.9  +13.3  +16.1     
16:53 27.09 ЮЗ  11 км    10/10 м  +16.1  +13.9  87  +16  +16    1018.5  919.3  +13.3  +16.1     
17:11 27.09 нст  13 км    10/10 м  +17.0  +14.0  82  +17  +17    1017.0  919.0  +16.1  +25.6     
18:53 27.09 нст  16 км  гроза  ясно  +22.0  +15.0  64  +25  +32  комфорт  1015.2  916.8  +16.1  +25.6     
19:53 27.09 Ю  16 км  гроза со слабым дождем  ясно  +23.3  +15.0  60  +27  +31  душно  1014.3  916.2  +16.1  +25.6     
20:53 27.09 Ю  16 км  гроза со слабым дождем  ясно  +24.0  +15.0  57  +27  +29  жарко  1013.2  915.3  +16.1  +25.6     
21:53 27.09 Ю  16 км  гроза с сильным дождем, дымка  ясно  +25.0  +15.0  54  +28  +30  жарко  1012.3  914.7  +16.1  +25.6     
22:53 27.09 Ю  16 км  гроза со слабым дождем, дымка  ясно  +25.0  +14.4  52  +28  +28  жарко  1012.0  914.4  +16.1  +25.6     
23:53 27.09 Ю  16 км  дождь, дымка  ясно  +23.0  +14.0  57  +26  +27  жарко  1012.7  914.7  +18.9  +25.0     
00:53 28.09 ЮВ  16 км  слабый дождь  ясно  +20.0  +15.0  73  +22  +22  комфорт  1013.1  915.0  +18.9  +25.0     
01:53 28.09 Ю  16 км    ясно  +19.4  +15.0  76  +21  +21  комфорт  1013.7  915.3  +18.9  +25.0     
02:53 28.09 Ю  16 км    ясно  +19.0  +15.0  78  +20  +20    1013.8  915.6  +18.9  +25.0     
03:53 28.09 Ю  16 км    ясно  +20.0  +16.0  78  +22  +22  комфорт  1013.5  915.3  +18.9  +25.0     
04:53 28.09 Ю  16 км  слабый дождь, дымка  ясно  +19.4  +16.1  81  +21  +21  комфорт  1013.6  915.6  +18.9  +25.0     
05:53 28.09 Ю  16 км    ясно  +19.0  +16.0  83  +20  +20    1013.2  915.3  +17.2  +19.4     
06:53 28.09 Ю  16 км    ясно  +18.0  +16.0  88  +18  +18    1013.0  915.3  +17.2  +19.4     
07:53 28.09 Ю  16 км    ясно  +17.8  +16.1  90  +17  +17    1012.5  915.0  +17.2  +19.4     
08:53 28.09 Ю  16 км    ясно  +18.0  +16.0  88  +18  +18    1012.4  915.0  +17.2  +19.4     
09:53 28.09 Ю  16 км    ясно  +18.0  +17.0  94  +17  +17    1012.5  915.3  +17.2  +19.4     
10:53 28.09 Ю  8 км    ясно  +17.8  +17.2  96  +17  +17    1012.8  915.6  +17.2  +19.4     
11:53 28.09 Ю  8 км    ясно  +18.0  +17.0  94  +18  +18    1013.3  915.6  +17.8  +28.3     
12:53 28.09 Ю  10 км    ясно  +19.0  +17.0  88  +20  +20    1014.0  916.2  +17.8  +28.3     
13:53 28.09 Ю  8 км    2/2 м  +20.0  +17.8  87  +23  +23  комфорт  1014.1  916.2  +17.8  +28.3     
14:53 28.09 Ю  16 км    ясно  +23.0  +18.0  73  +28  +29  душно  1014.1  916.5  +17.8  +28.3     
15:53 28.09 Ю  16 км    ясно  +26.0  +17.0  58  +30  +31  душно  1013.8  916.5  +17.8  +28.3     
16:53 28.09 Ю  16 км    ясно  +28.3  +17.8  53  +33  +36  очень
душно 
1013.3  916.2  +17.8  +28.3     
17:53 28.09 Ю  16 км    ясно  +30.0  +18.0  49  +35  +38  очень
душно 
1012.5  915.6  +28.3  +31.7     
18:53 28.09 Ю  16 км    ясно  +31.0  +17.0  43  +35  +39  очень
душно 
1011.6  915.0  +28.3  +31.7     
19:53 28.09 ЮВ  16 км    ясно  +31.7  +16.1  39  +35  +35  очень
душно 
1011.1  914.4  +28.3  +31.7     
20:53 28.09 Ю  16 км    ясно  +32.0  +15.0  36  +34  +36  душно  1011.0  914.4  +28.3  +31.7     
21:53 28.09 Ю  16 км    ясно  +31.0  +15.0  38  +33  +34  душно  1011.4  914.7  +28.3  +31.7     
22:53 28.09 ЮВ  16 км    ясно  +29.4  +15.0  42  +32  +32  душно  1011.8  915.0  +28.3  +31.7     
23:53 28.09 ЮВ  16 км    ясно  +26.0  +16.0  54  +29  +29  душно  1012.6  915.3  +20.0  +29.4     
00:53 29.09 Ю  13 км    ясно  +24.0  +16.0  61  +27  +27  жарко  1013.5  916.2  +20.0  +29.4     

 

Местоположение метеостанции Midland International Airport: широта 31.9478 долгота -102.2086 высота над уровнем моря 875 м.

В архиве по умолчанию представлена погода в Мидленде за последние 1-2 суток. Обновление информации о фактической погоде в базе происходит ежечасно! Архивные данные за месяц целиком и за предыдущие месяцы Вы можете получить, выбрав интересующий диапазон дат из раскрывающегося списка и нажав кнопку "Ввод!".

Внимание! Архив погоды МЕТАР в базе сайта в настоящее время начинается c 1 января 2013 г. Нет смысла пытаться выбрать более раннюю дату.

Внимание! Время в таблицах - всемирное. Для получения местного времени необходимо прибавить поправку, которая в Мидленде равна -6 ч.

Ветер - указаны скорость ветра в м/с и направление, откуда дует ветер: С - северный, СВ - северо-восточный, В - восточный, ЮВ - юго-восточный, Ю - южный, ЮЗ - юго-западный, З - западный, СЗ - северо-западный.
Видимость - горизонтальная дальность видимости в метрах или километрах. При видимости от 1 до 10 км при отсутствии осадков обычно наблюдается дымка, при ухудшении видимости до 1 км и менее - туман. В сухую погоду видимость может ухудшаться дымом, пылью или мглою.
Атмосферные явления - указаны явления, наблюдавшиеся в указанный момент времени.
Облачность - указаны через наклонную черту верхняя и нижняя облачность в баллах и высота нижней границы облаков в метрах. Внимание: облачность, как и прочие метеорологические величины в США измеряются автоматическими метеостанциями. Указанные значения в баллах носят условный характер и показывают процент времени, в течение которого, в среднем, лазерный луч высотомера отражался от облаков обратно.
T - Температура воздуха - температура, измеренная на высоте 2 м над землей.
Td - Температура точки росы - температура, при понижении до которой содержащийся в воздухе водяной пар достигнет насыщения.
f - Относительная влажность воздуха - влажноcть воздуха, измеренная на высоте 2 м над землей.
Te - Эффективная температура - температура, которую ощущает одетый по сезону человек в тени. Характеристика душности погоды. При расчете учитывается влияние влажности воздуха и скорости ветра на теплоощущения человека.
Tes - Эффективная температура на солнце - температура, которую ощущает человек, с поправкой на солнечный нагрев. Характеристика знойности погоды. Зависит от высоты солнца над горизонтом, облачности и скорости ветра. Ночью, в пасмурную погоду, а также при ветре 12 м/с и более поправка равна нулю.
P - Атмосферное давление - приведенное к уровню моря атмосферное давление.
Po - Атмосферное давление - измеренное на уровне метеостанции атмосферное давление.
Tmin - Минимальная температура - минимум температуры воздуха на высоте 2 м над землей.
Tmax - Максимальная температура - максимум температуры воздуха на высоте 2 м над землей.
R - Количество осадков - Количество выпавших осадков за 3 или 6 часов, мм.
SD - Снежный покров - Высота снежного покрова, см.